Simultaneous Nadir Overpasses (SNOs) Predictions

Prediction of SNOs between AQUA and METOP-B Satellite Orbit:

Table of predicted SNOs for the next 14.0 days since TLE Epoch: 9/13/2013
Index Date (AQUA) Time (AQUA) Lat,Lon (AQUA) SZA (AQUA ) Date (METOP-B) Time (METOP-B) Lat,Lon (METOP-B) SZA (METOP-B ) Distance(km) Time Diff (sec)
1 09/15/2013 11:48:26 -73.70, 177.41 109.21 09/15/2013 11:47:53 -73.70, 177.30 109.20 3.35 33
2 09/15/2013 12:37:55 73.78, -15.13 70.90 09/15/2013 12:38:31 73.79, -15.14 70.91 1.36 36
3 09/18/2013 07:22:44 -73.74,-116.25 108.08 09/18/2013 07:22:14 -73.75,-116.17 108.07 2.53 30
4 09/18/2013 08:12:12 73.77, 51.31 71.97 09/18/2013 08:12:53 73.79, 51.27 71.99 2.68 41
5 09/21/2013 02:57:01 -73.75, -49.84 106.99 09/21/2013 02:56:36 -73.74, -49.78 106.99 2.23 25
6 09/21/2013 03:46:29 73.79, 117.71 73.07 09/21/2013 03:47:15 73.79, 117.68 73.08 1.30 46
7 09/23/2013 21:41:36 72.99,-149.47 73.31 09/23/2013 21:40:31 72.95,-152.45 73.34 97.34 65
8 09/23/2013 22:31:16 -73.73, 16.64 105.92 09/23/2013 22:30:57 -73.73, 16.61 105.91 1.12 19
9 09/23/2013 23:20:45 73.82,-175.93 74.20 09/23/2013 23:21:36 73.79,-175.93 74.16 3.66 51
10 09/26/2013 17:15:57 73.25, -83.57 74.67 09/26/2013 17:14:49 73.15, -85.64 74.61 67.48 68
11 09/26/2013 18:05:32 -73.72, 83.07 104.83 09/26/2013 18:05:19 -73.72, 82.99 104.83 2.57 13
12 09/26/2013 18:55:01 73.82,-109.50 75.29 09/26/2013 18:55:57 73.83,-109.43 75.29 2.30 56




NCC Satellite Simultaneous Nadir Overpasses (SNOs) Prediction Service
